Погода в Ижморке-Второй

Россия / Кемеровская область (Кузбасс)     56°09′15″N   86°37′40″E
темп.,
°C
ветер,
м/с
пор.,
м/с
влажн.,
%
обл.,
%
осадки,
мм/ч
давл.,
гПа
погр.,
м
18 января, пн
пн1801:00−11юз71591100 0.1 1014496
04:00−11ююз7169199 0.0 1013443
07:00−9ююз81784100 0.0 1010474
10:00−9ююз81689100 0.1 1006708
13:00−8юз71289100 0.4 1006981
16:00−8зюз61290100 0.1 1005963
19:00−10зюз61389100 0.2 1007776
22:00−12зюз6129297 0.1 1008748
19 января, вт
вт1901:00−15зюз5129299 0.2 1011550
04:00−18зюз51294100 0.0 1013447
07:00−21зюз51295100 0.1 1016384
10:00−23юз6139495 0.0 1016339
13:00−21зюз6139282 0.0 1018500
16:00−20зюз61293100 0.1 1017655
19:00−22зюз51193100 0.1 1019550
22:00−23з4996100 0.1 1021562
20 января, ср
ср2001:00−27зюз3598100 0.1 1024119
04:00−30з349988 0.0 102780
07:00−32зюз339862 0.0 103035
10:00−32зюз23970 0.0 103229
13:00−28зюз24940 0.0 1032226
16:00−27зюз11954 0.0 103225
19:00−31ююз11982 0.0 103319
22:00−31вюв11957 0.0 103419
21 января, чт
чт2101:00−30вюв229437 0.0 103222
04:00−29в369680 0.0 1030121
07:00−26в489290 0.0 1027216
10:00−24в4892100 0.0 1024217
13:00−20в3595100 0.0 1020205
16:00−17вюв2396100 0.2 1017133
19:00−15ююз2896100 0.3 1016265
22:00−13юз3995100 0.1 1013290
22 января, пт
пт2201:00−12ююз41094100 0.1 1011400
04:00−12юз41093100 0.0 1009423
07:00−16юз4109590 0.0 1008267
10:00−19зюз5119554 0.0 1010347
13:00−20зюз489261 0.0 1011367
16:00−20юз489179 0.0 1013342
19:00−23юз499589 0.0 1014226
22:00−23юз4109462 0.0 1015252